Погода в Калачеевском

Россия / Воронежская область     50°20′21″N   41°09′48″E
темп.,
°C
ветер,
м/с
пор.,
м/с
влажн.,
%
обл.,
%
осадки,
мм/ч
давл.,
гПа
погр.,
м
19 апреля, пн
пн1900:00+10св245990 0.0 1017100
03:00+9в226293 0.0 101721
06:00+9юв1269100 0.0 101624
09:00+13в2356100 0.0 10161023
12:00+14вюв3452100 0.4 10151464
15:00+14в335864 0.8 10141128
18:00+13в356574 0.7 1014726
21:00+10вюв347832 0.9 101495
20 апреля, вт
вт2000:00+10в3776100 0.0 1014295
03:00+8вюв488928 0.0 1014252
06:00+8в51095100 0.0 1013364
09:00+11вюв71082100 0.0 1012826
12:00+12в81184100 1.4 1009793
15:00+10в91894100 10.3 10041049
18:00+13ююв111988100 8.8 10011208
21:00+12ю615872 11.1 1002788
21 апреля, ср
ср2100:00+10ю91686100 0.2 1003918
03:00+9юз81292100 0.6 1005806
06:00+8ююз51188100 0.2 1010544
09:00+9ююз51192100 0.8 1012724
12:00+11юз6974100 0.3 10131024
15:00+15юз694684 0.6 10132243
18:00+13зюз376288 0.1 1015292
21:00+10юз356999 0.1 101776
22 апреля, чт
чт2200:00+8зюз33786 0.0 101936
03:00+7юз11795 0.0 101910
06:00+7ю117947 0.0 102110
09:00+12ююв2363100 0.0 1021511
12:00+16ю344878 0.2 10211723
15:00+16ююв3348100 0.3 10211296
18:00+15ююв236298 1.0 102169
21:00+10ююз358479 2.6 102298
23 апреля, пт
пт2300:00+10ю117595 0.1 102110
03:00+8ююв128254 0.3 102110
06:00+8ююз2285100 0.0 102120
09:00+14ююз33645 0.0 1021582
12:00+17юз44503 0.1 10201632
15:00+18зюз444193 0.4 10192495
18:00+15сз355924 0.0 1018246
21:00+11з22705 0.3 101916